Location: El Manguito
(10.2358°N, 67.3634°W)
Time: 20:18:23
(UTC+00:00)

Aurora 2 Rocket - Pass Details

Date: 13 December 2024
Orbit: 386 x 1590 km, 25.0° (Epoch: 12 January)

Event Time Altitude Azimuth Distance (km) Brightness Sun altitude
Rises 22:52:03 0° 239° (WSW) 3,686 8.6 -10.4°
Reaches altitude 10° 22:54:26 10° 237° (WSW) 2,900 7.5 -10.9°
Maximum altitude 23:01:52 73° 153° (SSE) 1,369 4.2 -12.6°
Enters shadow 23:09:25 18° 72° (ENE) 3,052 5.4 -14.3°
